Location: Azenweiler
(47.8027°N, 9.4096°E)
Time: 03:27:53
(UTC+00:00)

Cosmos 1626 Rocket - Pass Details

Date: 22 March 2026
Orbit: 596 x 624 km, 82.5° (Epoch: 13 April)

Event Time Altitude Azimuth Distance (km) Brightness Sun altitude
Rises 01:34:31 0° 9° (N) 2,888 7.8 -34.5°
Reaches altitude 10° 01:38:45 10° 48° (NE) 1,967 6.9 -34.1°
Maximum altitude 01:39:42 11° 61° (ENE) 1,923 6.8 -34.0°
Drops below altitude 10° 01:40:39 10° 74° (ENE) 1,960 6.7 -33.8°
Sets 01:44:49 0° 114° (ESE) 2,848 7.2 -33.4°
